sat.trackr.live / text

‹ back to catalog

STARLINK-35528

NORAD 66094 · 2025-236J

PAYLOAD ACTIVE UNKNOWN

§ Identity

Operator
Country
US
Launch date
2025-10-19
Launch site
AFWTR
Launch vehicle
Mass (kg)
RCS (m²)

Purposes: comms

External: N2YO · Heavens-Above · Gunter

§ Orbital elements

Epoch: 2026-09-20T12:32:57.006528Z

Period
93.85 min
Inclination
53.1591°
Eccentricity
0.0001455
Mean motion
15.34402987 rev/d
Perigee alt
461.7 km
Apogee alt
463.7 km
Semi-major
6,840.8 km
B*
5.7987e-4
RAAN
277.5320°
Arg perigee
68.1023°
Mean anomaly
292.0134°
Rev number
5,279

§ Raw data

STARLINK-355281 66094U 25236J   26263.52288202  .00019268  00000+0  57987-3 0  99952 66094  53.1591 277.5320 0001455  68.1023 292.0134 15.34402987 52799

JSON: /api/v1/satellites/66094 · /tle

For live sub-satellite position, see the globe view (requires WebGL).

§ Visibility from observer

Set your observer location to see the next 7 days of passes ≥ 10°. The values pass through the URL so the page stays shareable.

No JS? Fill the form by hand. The geolocation button needs JavaScript.